アトラス彗星

C/2017 K4 ( ATLAS )

English version
Home page
Updated on August 11, 2020

---------------------------------------------------------------------

・ プロフィール

発見日 2017年5月26日
発見光度 17.0等
発見者 Asteroid Terrestrial-impact Last Alert System (ATLAS) Team

・ 写真集

・ 軌道要素

Epoch 2018 Jan. 2.0 TT = JDT 2458120.5                                          
T 2018 Jan. 8.03391 TT                                  Rudenko                 
q   2.6480764            (2000.0)            P               Q                  
n   0.00661345     Peri.   15.10924     +0.68514330     +0.68369621             
a  28.1093282      Node   298.89761     -0.69452596     +0.50918727             
e   0.9057937      Incl.   16.67905     -0.21957311     +0.52276937             
P 149                                                                           
From 419 observations 2017 Apr. 21-2019 Jan. 27, mean residual 0".5.            

・ 星図

・ 光度変化

        m1 = 9.2 + 5 logΔ + 10.0 log r(t + 50)

---------------------------------------------------------------------

軌道要素はM.P.E.C. 2020-P19に掲載されたものです。
星図はステラナビゲータ Ver.10 (アストロアーツ) で作成したものです。
光度グラフはComet for Windowsで作成したものです。

---------------------------------------------------------------------

Copyright(C) Seiichi Yoshida (comet@aerith.net). All rights reserved.